Location: Chenereilles
(45.4866°N, 4.0790°E)
Time: 15:04:56
(UTC+00:00)

Cosmos 1408 - Pass Details

Date: 12 November 2019
Orbit: 470 x 497 km, 82.6° (Epoch: 10 December)

Event Time Altitude Azimuth Distance (km) Brightness Sun altitude
Rises 17:00:48 0° 346° (NNW) 2,549 6.2 -8.0°
Reaches altitude 10° 17:02:57 10° 342° (NNW) 1,660 5.3 -8.3°
Maximum altitude 17:06:28 51° 265° (W) 604 3.5 -8.9°
Drops below altitude 10° 17:09:56 10° 189° (S) 1,633 5.6 -9.5°
Sets 17:12:02 0° 184° (S) 2,502 6.5 -9.9°
